Regional Weather Roundup
Issued by NWS

Home | Current Version | Previous Version | Graphics & Text | Print | Product List | Glossary On
Versions: 1 2 3 4 5 6 7 8 9 10 11 12 13 14 15 16 17 18 19 20 21 22 23 24 25 26 27 28 29 30 31 32 33 34 35 36 37 38 39 40 41 42 43 44 45 46 47 48 49 50
000
ASUS45 KPSR 012110
RWRAZ

ARIZONA HOURLY REGIONAL WEATHER ROUNDUP
NATIONAL WEATHER SERVICE PHOENIX AZ
200 PM MST WED JUL 01 2015

NOTE: FAIR INDICATES FEW OR NO CLOUDS BELOW 12,000 FEET WITH NO
SIGNIFICANT WEATHER AND/OR OBSTRUCTIONS TO VISIBILITY.

AZZ001>003-036-012200-
NORTHWEST ARIZONA

CITY           SKY/WX    TMP DP  RH WIND       PRES   REMARKS
BULLHEAD CITY  MOSUNNY  102  57  22 S10G20    29.83F HX 101
KINGMAN        PTSUNNY   90  54  29 SW22G29   30.04F
$$

AZZ004>008-015-016-018-012200-
NORTH CENTRAL ARIZONA

CITY           SKY/WX    TMP DP  RH WIND       PRES   REMARKS
GRAND CANYON   SUNNY     90  45  21 N5        30.20F
WILLIAMS       MOSUNNY   84  54  34 NW13      30.29F
PRESCOTT       PTSUNNY   85  56  37 W6G16     30.13F
FLAGSTAFF      MOSUNNY   82  57  42 SW17      30.24F
PAYSON         MOSUNNY   88  57  35 W12G18    30.14F
PAGE           SUNNY    103  42  12 VRB6      29.96F
$$

AZZ009>014-017-012200-
NORTHEAST ARIZONA

CITY           SKY/WX    TMP DP  RH WIND       PRES   REMARKS
WINSLOW        MOSUNNY   99  52  20 NW6       30.02F
SAINT JOHNS    SUNNY     92  48  22 VRB3      30.10F
WINDOW ROCK    MOSUNNY   93  46  19 CALM      30.17
SHOW LOW       SUNNY     82  54  36 SW8       30.20F
$$

AZZ023-012200-
GREATER PHOENIX AREA

CITY           SKY/WX    TMP DP  RH WIND       PRES   REMARKS
PHOENIX        PTSUNNY  102  59  24 W15G24    29.84F HX 102
BUCKEYE        MOSUNNY  100  57  23 SW17      29.86F
GLENDALE       PTSUNNY  102  59  24 S10G21    29.85F HX 102
LUKE AFB       MOSUNNY  102  59  24 S13G23    29.82F HX 102
DEER VALLEY    MOSUNNY  100  55  22 W12G22    29.85F
SCOTTSDALE     SUNNY    100  59  25 W10       29.87F HX 100
CHANDLER       PTSUNNY  100  59  25 W14       29.86F HX 100
$$

AZZ027-028-012200-
SOUTHWEST MARICOPA COUNTY AND PINAL COUNTY

CITY           SKY/WX    TMP DP  RH WIND       PRES   REMARKS
CASA GRANDE    SUNNY     99  61  28 W9G20     29.88F
GILA BEND      FAIR     100  61  27 W14G23    29.87F HX 101
$$

AZZ503-504-507>509-012200-
SOUTHEAST ARIZONA

CITY           SKY/WX    TMP DP  RH WIND       PRES   REMARKS
TUCSON         MOSUNNY   93  58  30 NW12      29.98F
DAVIS-MONTHAN  SUNNY     92  60  34 W10G16    29.96F
RYAN FIELD     SUNNY     93  59  31 NW10      29.97F
NOGALES        TSTM      68  61  78 NE10      30.07F
SIERRA VISTA   PTSUNNY   86  55  34 SW6       30.11F
DOUGLAS        MOSUNNY   93  51  23 SW12G21   30.04F
SAFFORD        MOSUNNY   97  52  21 S5        29.93F
$$

AZZ020-021-025-026-031-012200-
SOUTHWEST ARIZONA

CITY           SKY/WX    TMP DP  RH WIND       PRES   REMARKS
YUMA           CLOUDY    94  66  39 S15       29.88F
$$

CAZ031-033-041-043-047-048-061-012200-
SOUTHERN CALIFORNIA

CITY           SKY/WX    TMP DP  RH WIND       PRES   REMARKS
DOWNTOWN L.A.  CLOUDY    81  61  50 VRB3      29.87F
L.A. AIRPORT   CLOUDY    72  64  76 W12       29.90S
SAN DIEGO      PTSUNNY   78  64  61 SW8       29.93S
BURBANK        CLOUDY    89  50  26 S5        29.89F
ONTARIO        CLOUDY    92  52  25 SW8       29.90R
RIVERSIDE      CLOUDY    91  54  28 W7        29.91R
PALM SPRINGS   CLOUDY    93  67  42 E8        29.90R
EL CENTRO NAS  CLOUDY    96  67  38 CALM      29.86F HX 100
IMPERIAL       CLOUDY    97  67  37 E12       29.84F HX 101
BLYTHE         MOSUNNY   96  64  34 W9        29.87F
NEEDLES        PTSUNNY  105  54  18 W21G29    29.84  HX 103
$$

NVZ020-UTZ003-012200-
SOUTHERN NEVADA-UTAH

CITY           SKY/WX    TMP DP  RH WIND       PRES   REMARKS
LAS VEGAS      MOSUNNY  105  53  17 VRB6      29.83F HX 103
SALT LAKE CITY MOSUNNY   96  47  18 NW3       30.04F
$$

NMZ009-TXZ055-012200-
NEW MEXICO-WEST TEXAS

CITY           SKY/WX    TMP DP  RH WIND       PRES   REMARKS
ALBUQUERQUE    PTSUNNY   92  46  20 W7        30.08F
EL PASO        MOSUNNY   94  45  18 S8        30.01F
$$


........................KEY........................
SKY/WX - SKY CONDITION/WEATHER
TMP    - TEMPERATURE IN FAHRENHEIT
DP     - DEW POINT IN FAHRENHEIT
RH     - RELATIVE HUMIDITY IN PERCENT
WIND   - DIRECTION AND SPEED IN MILES PER HOUR (MPH)
VRB    - VARIABLE WIND DIRECTION
PRES   - MEAN SEA LEVEL PRESSURE IN INCHES OF MERCURY
         F - FALLING PRESSURE   R - RISING PRESSURE
         S - STEADY PRESSURE
VSB    - VISIBILITY IN MILES
HX     - HEAT INDEX IN FAHRENHEIT
WCI    - WIND CHILL INDEX IN FAHRENHEIT
TC     - TEMPERATURE IN CELSIUS WHICH IS ALSO KNOWN AS
         TEMPERATURE IN CENTIGRADE
AFB    - AIR FORCE BASE
         LUKE AFB IS LUKE AIR FORCE BASE
         DAVIS-MONTHAN IS DAVIS-MONTHAN AIR FORCE BASE
NAS    - NAVAL AIR STATION
         EL CENTRO NAS IS EL CENTRO NAVAL AIR STATION
N/A    - NOT AVAILABLE



USA.gov is the U.S. government's official web portal to all federal, state and local government web resources and services.